User: anonymous   Login
Location: Unspecified
(0.0000°N, 0.0000°E)
Time: 06:35:18
(UTC+01:00)
Language:

GPS 2-05 Rocket1 - Orbit

View from above orbital plane
View from above orbital plane
View from above satellite
View from above satellite

Ground track
Ground track

The orbit data is extracted from the following two-line orbital elements,

1 20362U 89097B   15030.55876763  .00023672  00000-0  70003-3 0  6251
2 20362 035.6143 058.6602 0094926 324.1099 172.5707 15.29595562365622
Epoch (UTC): 30 January 2015 13:24:37
Eccentricity: 0.0094926
inclination: 35.6143°
perigee height: 412 km
apogee height: 542 km
right ascension of ascending node: 58.6602°
argument of perigee: 324.1099°
revolutions per day: 15.29595562
mean anomaly at epoch: 172.5707°
orbit number at epoch: 36562

The dashed part of the orbit path shows where the satellite is in the earth's shadow,  

DLR